Weather History for Visalia, CA

Change the Weather History Date:

Thursday, April 3, 2014

  Actual Average Record
Temperature  
Mean Temperature 53 °F -  
Max Temperature 64 °F 70 °F 89 °F (1959)
Min Temperature 42 °F 46 °F 34 °F (1955)
Degree Days  
Heating Degree Days 12    
Growing Degree Days 3 (Base 50)    
Moisture  
Dew Point 40 °F    
Average Humidity 62    
Maximum Humidity 82    
Minimum Humidity 40    
Precipitation  
Precipitation 0.00 in - - ()
Sea Level Pressure  
Sea Level Pressure 30.08 in    
Wind  
Wind Speed 2 mph (SSW)    
Max Wind Speed 8 mph    
Max Gust Speed -    
Visibility 10 miles    
Events      
Averages and records for this station are not official NWS values.
T = Trace of Precipitation, MM = Missing Value Source: NWS Daily Summary

Daily Weather History Graph

Daily Weather History Graph

Search for Another Location

Airport:

Trip Planner

Search our weather history database for the weather conditions in past years. The results will help you decide how hot, cold, wet, or windy it might be!

Date:

Astronomy

Apr. 03, 2014 Rise Set
Actual Time 6:40 AM PDT 7:21 PM PDT
Civil Twilight 6:14 AM PDT 7:47 PM PDT
Nautical Twilight 5:44 AM PDT 8:18 PM PDT
Astronomical Twilight 5:12 AM PDT 8:49 PM PDT
Moon 9:19 AM PDT (4/3) 11:39 PM PDT (4/3)
Length of Visible Light 13h 32m
Length of Day
12h 40m
Waxing Crescent, 18% of the Moon is Illuminated
Apr 3
Waxing Crescent
Apr 7
First Quarter
Apr 15
Full
Apr 22
Last Quarter
Apr 28
New

Hourly Weather History & Observations

Time (PDT) Temp. Windchill Dew Point Humidity Pressure Visibility Wind Dir Wind Speed Gust Speed Precip Events Conditions
12:15 AM 46.4 °F - 35.6 °F 66% 30.09 in 10.0 mi Calm Calm - N/A   Clear
12:35 AM 46.4 °F - 37.4 °F 71% 30.09 in 10.0 mi Calm Calm - N/A   Clear
12:55 AM 48.2 °F - 39.2 °F 71% 30.09 in 10.0 mi East 3.5 mph - N/A   Clear
1:15 AM 46.4 °F 42.9 °F 37.4 °F 71% 30.08 in 10.0 mi West 6.9 mph - N/A   Clear
1:35 AM 44.6 °F 42.2 °F 37.4 °F 76% 30.08 in 10.0 mi NW 4.6 mph - N/A   Clear
1:55 AM 46.4 °F 45.2 °F 37.4 °F 71% 30.08 in 10.0 mi NW 3.5 mph - N/A   Clear
2:15 AM 44.6 °F - 37.4 °F 76% 30.08 in 10.0 mi Calm Calm - N/A   Clear
2:35 AM 44.6 °F 42.2 °F 35.6 °F 71% 30.08 in 10.0 mi West 4.6 mph - N/A   Clear
2:55 AM 44.6 °F 43.1 °F 35.6 °F 71% 30.09 in 10.0 mi West 3.5 mph - N/A   Clear
3:15 AM 44.6 °F - 35.6 °F 71% 30.09 in 10.0 mi Calm Calm - N/A   Clear
3:35 AM 44.6 °F - 37.4 °F 76% 30.09 in 10.0 mi Calm Calm - N/A   Clear
3:55 AM 42.8 °F - 35.6 °F 76% 30.09 in 10.0 mi Calm Calm - N/A   Clear
4:15 AM 42.8 °F - 35.6 °F 76% 30.10 in 10.0 mi Calm Calm - N/A   Clear
4:35 AM 44.6 °F - 35.6 °F 71% 30.10 in 10.0 mi Calm Calm - N/A   Clear
4:55 AM 44.6 °F - 35.6 °F 71% 30.10 in 10.0 mi Calm Calm - N/A   Clear
5:15 AM 42.8 °F - 35.6 °F 76% 30.10 in 10.0 mi Calm Calm - N/A   Clear
5:35 AM 42.8 °F - 35.6 °F 76% 30.10 in 10.0 mi Calm Calm - N/A   Clear
5:55 AM 42.8 °F - 35.6 °F 76% 30.11 in 10.0 mi Calm Calm - N/A   Partly Cloudy
6:15 AM 42.8 °F - 35.6 °F 76% 30.11 in 10.0 mi Calm Calm - N/A   Mostly Cloudy
6:35 AM 42.8 °F 40.1 °F 35.6 °F 76% 30.11 in 8.0 mi SE 4.6 mph - N/A   Overcast
6:55 AM 42.8 °F 41.1 °F 35.6 °F 76% 30.12 in 6.0 mi SSE 3.5 mph - N/A   Scattered Clouds
7:15 AM 42.8 °F 41.1 °F 35.6 °F 76% 30.12 in 6.0 mi SSE 3.5 mph - N/A   Clear
7:35 AM 42.8 °F - 37.4 °F 81% 30.13 in 6.0 mi Calm Calm - N/A   Clear
7:55 AM 44.6 °F 43.1 °F 37.4 °F 76% 30.14 in 7.0 mi SE 3.5 mph - N/A   Clear
8:15 AM 44.6 °F 43.1 °F 37.4 °F 76% 30.14 in 8.0 mi SE 3.5 mph - N/A   Clear
8:35 AM 46.4 °F - 39.2 °F 76% 30.14 in 9.0 mi Calm Calm - N/A   Clear
8:55 AM 48.2 °F - 42.8 °F 82% 30.14 in 10.0 mi Calm Calm - N/A   Clear
9:15 AM 50.0 °F - 42.8 °F 76% 30.14 in 10.0 mi SE 5.8 mph - N/A   Clear
9:35 AM 51.8 °F - 42.8 °F 71% 30.14 in 10.0 mi SSE 4.6 mph - N/A   Clear
9:55 AM 53.6 °F - 42.8 °F 67% 30.14 in 10.0 mi SE 4.6 mph - N/A   Clear
10:15 AM 55.4 °F - 42.8 °F 63% 30.14 in 10.0 mi Calm Calm - N/A   Clear
10:35 AM 55.4 °F - 42.8 °F 63% 30.14 in 10.0 mi SSE 5.8 mph - N/A   Clear
10:55 AM 57.2 °F - 44.6 °F 63% 30.13 in 10.0 mi South 5.8 mph - N/A   Clear
11:15 AM 57.2 °F - 44.6 °F 63% 30.13 in 10.0 mi SE 4.6 mph - N/A   Clear
11:35 AM 59.0 °F - 44.6 °F 59% 30.12 in 10.0 mi Calm Calm - N/A   Clear
11:55 AM 60.8 °F - 44.6 °F 55% 30.11 in 10.0 mi Calm Calm - N/A   Clear
12:15 PM 60.8 °F - 42.8 °F 52% 30.11 in 10.0 mi South 5.8 mph - N/A   Clear
12:35 PM 60.8 °F - 42.8 °F 52% 30.11 in 10.0 mi SW 4.6 mph - N/A   Clear
12:55 PM 62.6 °F - 42.8 °F 48% 30.10 in 10.0 mi Calm Calm - N/A   Clear
1:15 PM 64.4 °F - 42.8 °F 45% 30.09 in 10.0 mi Calm Calm - N/A   Clear
1:35 PM 64.4 °F - 42.8 °F 45% 30.08 in 10.0 mi WNW 6.9 mph - N/A   Clear
1:55 PM 64.4 °F - 42.8 °F 45% 30.09 in 10.0 mi Calm Calm - N/A   Clear
2:15 PM 64.4 °F - 42.8 °F 45% 30.07 in 10.0 mi WNW 8.1 mph - N/A   Clear
2:35 PM 64.4 °F - 42.8 °F 45% 30.06 in 10.0 mi Calm Calm - N/A   Clear
2:55 PM 64.4 °F - 42.8 °F 45% 30.06 in 10.0 mi WSW 4.6 mph - N/A   Clear
3:15 PM 64.4 °F - 42.8 °F 45% 30.05 in 10.0 mi WNW 5.8 mph - N/A   Clear
3:35 PM 64.4 °F - 42.8 °F 45% 30.04 in 10.0 mi WNW 5.8 mph - N/A   Clear
3:55 PM 64.4 °F - 41.0 °F 42% 30.04 in 10.0 mi WNW 5.8 mph - N/A   Clear
4:15 PM 64.4 °F - 42.8 °F 45% 30.03 in 10.0 mi West 5.8 mph - N/A   Clear
4:35 PM 64.4 °F - 42.8 °F 45% 30.03 in 10.0 mi WNW 5.8 mph - N/A   Clear
4:55 PM 64.4 °F - 42.8 °F 45% 30.02 in 10.0 mi WNW 4.6 mph - N/A   Clear
5:15 PM 64.4 °F - 41.0 °F 42% 30.01 in 10.0 mi West 5.8 mph - N/A   Clear
5:35 PM 64.4 °F - 39.2 °F 40% 30.01 in 10.0 mi WSW 5.8 mph - N/A   Clear
5:55 PM 64.4 °F - 41.0 °F 42% 30.01 in 10.0 mi West 5.8 mph - N/A   Clear
6:15 PM 64.4 °F - 41.0 °F 42% 30.01 in 10.0 mi West 3.5 mph - N/A   Clear
6:35 PM 62.6 °F - 41.0 °F 45% 30.00 in 10.0 mi West 3.5 mph - N/A   Clear
6:55 PM 62.6 °F - 39.2 °F 42% 30.00 in 10.0 mi Calm Calm - N/A   Clear
7:15 PM 62.6 °F - 41.0 °F 45% 30.00 in 10.0 mi Calm Calm - N/A   Clear
7:35 PM 62.6 °F - 39.2 °F 42% 29.99 in 10.0 mi Calm Calm - N/A   Clear
8:55 PM 57.2 °F - 42.8 °F 59% 30.01 in 10.0 mi SE 3.5 mph - N/A   Clear
9:15 PM 55.4 °F - 42.8 °F 63% 30.01 in 10.0 mi South 3.5 mph - N/A   Clear
9:35 PM 55.4 °F - 42.8 °F 63% 30.02 in 10.0 mi South 4.6 mph - N/A   Clear
9:55 PM 53.6 °F - 42.8 °F 67% 30.02 in 10.0 mi South 5.8 mph - N/A   Clear
10:15 PM 55.4 °F - 42.8 °F 63% 30.02 in 10.0 mi South 6.9 mph - N/A   Clear
10:35 PM 55.4 °F - 42.8 °F 63% 30.03 in 10.0 mi SSE 5.8 mph - N/A   Clear
10:55 PM 55.4 °F - 42.8 °F 63% 30.03 in 10.0 mi SE 4.6 mph - N/A   Clear
11:15 PM 55.4 °F - 42.8 °F 63% 30.03 in 10.0 mi SSE 3.5 mph - N/A   Clear
11:35 PM 53.6 °F - 42.8 °F 67% 30.03 in 10.0 mi ESE 4.6 mph - N/A   Clear
11:55 PM 53.6 °F - 42.8 °F 67% 30.03 in 10.0 mi South 4.6 mph - N/A   Clear